Location: Unspecified
(0.0000°N, 0.0000°E)
Time: 23:25:41
(UTC+00:00)

SRMSAT - Pass Details

Date: 17 July 2019
Orbit: 848 x 866 km, 20.0° (Epoch: 16 August)

Event Time Altitude Azimuth Distance (km) Brightness Sun altitude
Rises 18:26:00 0° 248° (WSW) 3,432 ? -4.6°
Reaches altitude 10° 18:28:34 10° 247° (WSW) 2,494 ? -5.2°
Maximum altitude 18:34:36 85° 158° (SSE) 866 ? -6.6°
Drops below altitude 10° 18:40:36 10° 70° (ENE) 2,486 ? -8.0°
Enters shadow 18:42:56 - 70° (ENE) 3,333 ? -8.6°
